sat.trackr.live / text

‹ back to catalog

STARLINK-34006

NORAD 63869 · 2025-094F

PAYLOAD ACTIVE UNKNOWN

§ Identity

Operator
Country
US
Launch date
2025-05-10
Launch site
AFWTR
Launch vehicle
Mass (kg)
RCS (m²)

Purposes: comms

External: N2YO · Heavens-Above · Gunter

§ Orbital elements

Epoch: 2026-09-20T23:06:06.796224Z

Period
94.09 min
Inclination
69.9996°
Eccentricity
0.0002942
Mean motion
15.30431899 rev/d
Perigee alt
472.5 km
Apogee alt
476.5 km
Semi-major
6,852.7 km
B*
2.9381e-4
RAAN
99.6982°
Arg perigee
274.0172°
Mean anomaly
86.0667°
Rev number
7,651

§ Raw data

STARLINK-340061 63869U 25094F   26263.96257866  .00008551  00000+0  29381-3 0  99942 63869  69.9996  99.6982 0002942 274.0172  86.0667 15.30431899 76510

JSON: /api/v1/satellites/63869 · /tle

For live sub-satellite position, see the globe view (requires WebGL).

§ Visibility from observer

Set your observer location to see the next 7 days of passes ≥ 10°. The values pass through the URL so the page stays shareable.

No JS? Fill the form by hand. The geolocation button needs JavaScript.